CAPE
2542 2631 2390 2398 2432 2306 2377 2895 2426 2573 2415 1922 1838 1956 762 1571 1212 967 1010 1482 1162 1018 516 492 808 1304 1377 1362 1403 1399 1361 1387 1349 1249 1260 1412 1588 1464 1012 750 1688 2062 2371
2608 2017 1862 2295 2619 2575 2455 2567 2577 2590 2557 2056 1892 2028 1960 1730 1287 1087 822 1278 1004 920 482 433 301 223 165 143 174 214 574 862 924 876 1062 1089 1159 1262 1069 698 853 1180 1714
2806 1875 2183 2934 2943 2740 2731 2559 2581 2493 2588 2083 1969 2007 1977 1797 1366 1375 1139 799 979 605 536 443 406 324 175 164 95 93 64 54 304 644 655 563 501 489 839 849 112 143 1229
2598 1974 2531 2893 2745 2694 2626 2390 2213 2412 2496 2635 2349 2027 1993 1883 1641 1621 1414 1116 844 530 704 684 648 313 212 64 39 83 59 53 21 8 74 392 567 514 650 703 248 299 1275
1902 2100 2736 3068 2842 2683 2484 2142 1619 1750 2016 1768 1729 1856 2002 1971 1780 1444 1453 1284 979 707 837 1003 635 511 452 275 288 206 131 74 39 13 0 1 155 334 545 652 645 707 914
1897 2042 2848 2927 2850 2565 2235 2528 2043 663 380 442 824 1139 1853 1880 1875 1778 1624 1306 999 676 860 1179 977 958 724 497 400 348 164 59 12 2 1 0 0 45 276 551 432 496 705
2005 2741 2700 2891 2807 2601 2708 2216 1733 1655 377 99 366 305 1225 1468 1558 1656 1506 1362 1091 887 783 818 989 1015 709 436 362 259 153 68 45 1 5 4 2 0 103 401 568 551 704
1367 2424 3137 2800 3238 2804 2792 2567 2133 1110 359 31 82 189 76 520 569 1004 1411 1419 1336 947 854 857 1104 986 1009 625 408 243 142 69 42 25 10 2 7 7 0 227 482 546 642
1775 1603 2930 3106 3199 3040 2377 2583 1857 947 234 83 10 76 0 0 16 166 352 682 912 775 774 899 968 793 758 370 255 88 19 84 17 23 9 1 5 20 14 116 309 465 605
1533 2017 3003 3156 3311 3083 3036 2569 1341 330 198 7 12 0 0 0 0 0 7 8 133 42 198 344 819 180 232 111 126 144 106 13 1 22 9 10 139 89 31 26 118 273 513
1884 1716 2846 3152 3292 3079 3171 2988 1964 199 9 0 0 0 0 0 0 0 0 0 0 4 101 138 14 15 13 3 37 162 93 41 34 29 30 187 254 187 118 137 121 228 390
1441 1912 1857 2871 3165 3385 3361 3082 1858 145 0 0 0 0 0 0 0 0 0 0 0 4 15 10 9 8 18 228 212 106 74 75 24 13 72 227 301 229 105 158 293 377 467
1160 1525 1992 2410 2838 3468 3412 3152 2062 560 34 3 0 0 0 0 0 0 0 0 0 0 16 14 13 61 65 41 125 50 148 94 37 7 21 61 182 212 164 115 126 169 416
936 1757 1537 2898 2720 3327 3398 3019 2042 752 72 0 0 0 0 0 0 0 0 0 0 1 20 16 60 31 63 56 58 5 3 36 34 11 8 20 32 64 121 21 0 0 1
659 1006 1660 2698 2718 3354 3499 3281 2572 1569 216 0 0 0 0 0 0 0 0 0 0 0 20 54 55 35 27 11 8 34 35 0 2 12 4 3 7 6 9 1 4 1 0
1427 1082 912 2467 2664 2899 3350 3456 2875 1776 779 9 0 0 0 0 0 0 0 0 0 0 14 57 60 4 56 22 4 2 2 0 0 4 2 7 5 3 5 5 4 2 0
1507 1375 1163 933 2500 2491 3027 3421 3184 2179 1183 110 0 0 0 0 0 0 0 0 0 0 18 13 17 44 28 17 0 1 4 1 3 0 4 7 4 3 2 0 0 0 2
1427 1547 1547 1237 1173 2055 2838 2893 2887 1954 1165 371 0 0 0 0 0 0 0 0 0 0 18 5 11 21 45 1 0 3 5 4 0 1 4 7 4 5 3 3 1 0 1
2053 1997 1788 1545 1752 2021 2455 2873 2634 2252 1137 687 7 0 0 0 0 0 0 0 0 2 1 46 8 13 35 23 4 1 6 4 0 0 2 3 5 7 7 1 0 0 0
2549 2445 2267 1754 1842 2207 2313 2501 2631 2059 1268 647 1 0 0 0 0 0 0 0 0 2 3 20 21 34 15 18 7 2 2 2 0 0 0 2 4 10 10 10 8 3 0
2879 2747 2654 2296 1787 1608 1526 2095 2309 2325 1222 475 0 0 0 0 0 0 0 0 0 0 2 13 21 25 26 38 19 6 0 0 0 1 1 0 2 2 5 5 4 2 0
3132 3086 2836 2623 2321 1886 955 593 1165 1779 1163 320 0 0 0 0 0 0 0 0 0 2 3 7 15 16 41 25 2 6 1 0 0 0 2 0 3 4 5 3 1 1 0
3057 3149 3051 2845 2694 2354 1321 47 85 1434 962 51 0 0 0 0 0 0 0 0 0 0 0 11 10 11 35 23 9 7 10 2 1 0 3 0 1 3 4 4 1 1 0
3014 3172 2661 1238 585 572 442 0 0 1438 524 24 0 0 0 0 0 0 0 0 0 1 2 3 12 28 30 9 5 4 6 6 2 0 1 0 0 1 4 6 3 0 0
1238 668 337 191 235 115 1 1 1 620 102 0 0 0 0 0 0 0 0 0 1 4 0 0 0 0 0 0 0 1 0 11 5 0 0 0 0 1 3 4 3 1 0
788 455 280 77 10 64 0 0 2 418 23 0 0 0 0 0 0 0 0 0 0 2 5 4 1 0 1 0 0 0 0 1 4 0 0 0 1 1 1 1 3 3 3
CIN
-29 -35 -35 -33 -34 -38 -26 -20 -17 -16 -19 -24 -33 -30 -128 -20 -21 -18 -12 -46 -60 -46 -40 -22 -15 -1 -1 -3 -4 -3 -3 -1 -2 -5 -4 -1 -3 -3 -2 -2 -1 -4 0
-31 -35 -47 -31 -25 -28 -42 -35 -18 -16 -13 -18 -26 -23 -20 -14 -21 -39 -15 -11 -47 -46 -51 -38 -62 -70 -116 -159 -221 -181 -56 -16 -14 -17 -11 -9 -3 -4 -3 -1 -3 -6 -1
-36 -74 -36 -16 -17 -26 -24 -19 -15 -14 -13 -20 -26 -24 -17 -15 -17 -31 -16 -20 -24 -58 -58 -48 -40 -52 -96 -181 -245 -238 -250 -269 -117 -19 -19 -34 -57 -51 -7 -2 -134 -96 0
-38 -59 -16 -8 -16 -16 -11 -7 -13 -11 -12 -9 -12 -13 -16 -18 -19 -14 -36 -48 -18 -29 -39 -38 -41 -74 -82 -172 -172 -157 -202 -251 -284 -320 -191 -21 -4 -16 -8 -2 -17 -22 -1
-27 -38 -10 -7 -17 -4 -5 -13 -23 -34 -16 -18 -14 -13 -15 -4 -7 -3 -18 -15 -27 -49 -8 -30 -21 -31 -45 -48 -50 -54 -76 -109 -171 -229 0 -7 -49 -14 -1 -2 0 -1 -3
-28 -31 -8 -11 -8 -2 -3 -7 -19 -176 -258 -236 -108 -46 -9 -3 -2 0 -2 -10 -25 -45 -21 -19 -17 -17 -16 -45 -48 -58 -55 -73 -91 -132 -72 0 0 -88 -5 0 -8 -9 -4
-21 -18 -6 -7 -10 -8 -10 -18 -23 -30 -244 -435 -258 -247 -48 -15 -3 -1 -5 0 -2 -8 -29 -32 -9 -15 -2 -62 -54 -64 -88 -118 -108 0 -148 0 0 0 -8 0 0 -1 0
-37 -20 -17 -12 -16 -4 -7 -10 -24 -79 -265 -516 -370 -347 -253 -147 -114 -37 -2 0 0 -2 -4 -14 -8 -10 -1 -1 -41 -27 -75 -110 -102 -93 -153 0 0 0 0 0 0 -1 -1
-33 -42 -26 -19 -18 -8 -9 -14 -30 -127 -259 -415 -595 -373 0 0 -460 -314 -195 -29 -3 -2 -3 -2 -1 -2 -3 -6 -1 -26 -87 -93 -135 -97 -47 0 0 0 -1 -1 0 0 0
-51 -34 -29 -29 -21 -15 -17 -10 -62 -271 -328 -489 -534 0 0 0 0 0 -88 -88 -281 -316 -100 -21 0 -35 -19 -28 -10 -113 -65 -64 -21 -73 -57 -22 -23 -31 0 0 0 0 0
-59 -47 -28 -33 -36 -16 -18 -17 -29 -319 -425 0 0 0 0 0 0 0 0 0 0 -338 -134 -83 0 0 0 -52 -14 -35 0 -3 -19 -31 -55 -2 0 0 0 -8 -4 0 0
-35 -46 -41 -34 -38 -20 -16 -12 -49 -344 0 0 0 0 0 0 0 0 0 0 0 -281 -237 -1 0 0 -2 0 -1 -4 -1 0 -19 -80 -69 -13 0 0 -1 -2 -2 0 0
-37 -28 -41 -38 -24 -17 -20 -18 -42 -183 -421 -82 0 0 0 0 0 0 0 0 0 0 -96 0 -35 -7 0 -8 -5 -15 0 -5 -37 -87 -63 -12 0 0 -1 -3 -22 -8 0
-64 -43 -49 -35 -45 -24 -17 -28 -30 -74 -323 0 0 0 0 0 0 0 0 0 0 0 0 0 -5 -18 0 -1 -3 -22 -57 -42 -15 -18 -2 0 0 -1 -8 -6 -1 0 0
-105 -81 -41 -32 -37 -13 -7 -19 -17 -36 -174 0 0 0 0 0 0 0 0 0 0 0 0 0 0 -6 -10 -4 -7 0 0 0 -2 0 -3 -1 0 0 -3 -6 -1 0 0
-65 -83 -80 -26 -25 -24 -10 -16 -19 -36 -71 -23 0 0 0 0 0 0 0 0 0 0 0 0 -2 0 -2 -1 0 0 0 0 0 0 0 -1 0 0 0 0 0 0 0
-69 -71 -71 -76 -24 -23 -20 -10 -13 -22 -40 -143 0 0 0 0 0 0 0 0 0 0 0 0 -18 -5 -2 -2 0 0 0 0 0 0 0 0 0 0 0 0 0 0 0
-87 -72 -56 -85 -80 -30 -12 -18 -11 -23 -36 -66 0 0 0 0 0 0 0 0 0 0 0 0 0 -5 0 0 0 0 0 0 0 0 0 0 0 0 0 0 0 0 0
-84 -75 -71 -73 -60 -36 -15 -7 -18 -18 -44 -40 -51 0 0 0 0 0 0 0 0 0 0 0 0 0 0 -1 0 0 0 0 0 0 0 0 0 0 0 0 0 0 0
-69 -68 -87 -90 -60 -31 -21 -9 -1 -17 -48 -57 -17 0 0 0 0 0 0 0 0 0 0 0 0 0 0 -4 0 0 0 0 0 0 0 0 -1 0 0 0 0 -1 0
-61 -67 -68 -78 -86 -77 -51 -44 -18 -4 -43 -94 0 0 0 0 0 0 0 0 0 0 0 0 0 0 0 0 0 0 0 0 0 0 0 0 0 0 0 0 0 0 0
-33 -40 -53 -60 -55 -56 -116 -180 -96 -22 -38 -119 0 0 0 0 0 0 0 0 0 0 0 0 0 0 0 0 0 0 0 0 0 0 0 0 -1 0 0 0 0 0 0
-6 -18 -27 -16 -8 -27 -122 -286 -344 -39 -55 -208 0 0 0 0 0 0 0 0 0 0 0 0 0 0 0 0 0 0 0 0 0 0 0 0 -1 0 0 0 0 0 0
-2 -16 -39 -191 -254 -246 -223 0 0 -39 -87 -140 0 0 0 0 0 0 0 0 0 0 0 0 0 0 0 0 0 0 0 0 0 0 0 0 0 0 0 0 0 0 0
-132 -199 -254 -352 -367 -436 -76 0 0 -133 -240 0 0 0 0 0 0 0 0 0 0 0 0 0 0 0 0 0 0 0 0 0 0 0 0 0 0 0 0 0 0 0 0
-188 -255 -279 -440 -531 -457 -42 0 0 -86 -327 0 0 0 0 0 0 0 0 0 0 0 0 0 0 0 0 0 0 0 0 0 0 0 0 0 0 0 -2 -1 0 0 0
Wind_Speed
3 4 3 4 3 2 3 3 2 4 2 2 3 3 4 5 5 3 3 6 8 9 9 9 10 11 13 14 12 10 8 8 8 5 6 10 13 15 18 12 16 15 16
3 4 4 4 3 3 3 3 3 3 3 2 2 4 5 5 5 3 3 5 6 9 8 7 9 11 12 12 12 11 9 8 8 8 7 6 5 9 14 23 13 7 11
3 4 4 4 3 2 3 3 4 3 3 2 4 4 4 5 5 6 4 2 7 7 8 8 8 9 9 9 11 13 12 12 10 10 7 5 4 5 7 18 14 13 12
2 3 4 4 2 2 3 3 3 3 3 3 3 4 4 5 6 6 4 3 4 5 7 8 11 9 10 9 10 11 11 10 10 9 7 7 6 2 3 15 21 23 17
2 3 3 3 2 3 4 3 3 4 3 3 4 4 4 5 6 5 6 6 4 4 5 9 7 6 10 10 9 8 9 9 9 7 6 6 5 4 1 8 15 16 12
4 3 2 3 3 4 4 4 3 3 4 4 5 3 4 4 5 5 6 5 6 8 6 5 3 7 9 9 9 8 9 9 9 8 7 7 5 4 2 4 11 13 11
3 3 2 2 3 4 5 5 4 4 3 5 3 3 3 4 6 5 6 7 7 6 4 3 4 3 6 11 9 9 10 8 9 9 8 7 7 4 3 2 9 15 15
3 3 3 3 4 3 3 5 6 4 2 5 4 2 3 2 1 4 4 5 7 4 4 3 5 5 5 4 7 8 11 10 10 9 9 9 8 6 4 4 6 11 14
4 3 3 1 2 3 5 5 6 6 5 3 6 4 3 4 6 1 3 3 3 3 2 4 5 7 6 5 5 8 10 11 8 10 9 9 8 7 4 7 7 9 14
5 4 4 3 2 2 3 3 3 3 3 4 1 2 3 3 4 4 2 3 2 3 5 5 4 6 5 5 5 7 7 2 7 8 10 8 9 9 7 7 9 10 12
3 5 6 5 4 2 1 2 2 3 3 2 3 2 1 1 1 3 4 2 2 4 5 5 6 5 5 5 3 7 6 3 2 5 7 10 9 8 6 7 10 11 13
2 4 5 5 4 3 4 2 3 3 2 2 2 2 2 3 4 3 4 4 4 3 5 5 6 4 2 1 1 6 6 5 4 8 11 12 11 10 4 2 4 9 15
3 4 5 5 5 5 4 3 3 2 1 2 3 3 2 2 2 2 3 4 4 1 3 6 4 4 4 3 3 6 10 9 10 10 10 10 11 10 8 4 5 7 4
4 4 7 6 6 6 5 3 2 0 1 1 2 1 2 2 1 1 3 4 4 1 1 5 3 4 2 2 4 6 3 7 8 7 7 10 11 9 5 4 6 6 7
5 6 7 5 5 6 5 4 3 3 2 1 1 2 2 1 0 0 1 2 3 4 1 3 3 3 3 3 5 3 5 7 7 8 9 10 11 11 7 5 3 3 5
7 6 7 6 6 7 7 6 4 4 4 2 1 2 3 1 1 1 1 2 2 2 1 2 4 4 4 3 3 2 4 6 4 9 9 10 10 10 9 8 7 6 5
9 8 8 8 8 8 8 7 6 5 5 3 3 4 2 2 2 2 2 2 1 2 0 3 2 4 4 3 1 4 4 4 3 7 11 11 10 10 10 11 11 9 8
10 10 9 9 9 9 9 9 7 6 6 5 5 5 2 2 2 2 2 3 2 1 1 8 3 2 3 2 3 4 5 5 6 10 12 12 11 12 11 11 12 13 11
12 11 10 10 10 9 8 8 7 7 6 7 6 5 3 2 3 3 4 4 3 4 2 6 5 3 3 2 1 3 4 5 6 13 12 13 13 13 14 15 16 17 14
12 12 12 11 10 9 8 8 8 8 7 7 6 5 4 3 4 4 4 4 4 4 4 5 6 5 3 0 2 4 3 4 4 7 10 10 14 17 17 18 18 20 20
13 13 13 11 12 10 9 11 11 9 8 8 6 6 5 5 4 5 3 3 3 3 3 4 5 5 3 1 3 3 4 3 6 5 6 6 7 7 7 10 6 8 19
13 12 12 11 11 10 11 13 11 10 8 9 8 7 7 10 8 11 11 7 4 3 4 3 4 6 4 2 1 4 4 4 2 3 5 6 7 8 9 9 6 10 22
12 11 9 7 9 10 11 11 13 8 9 10 11 10 9 7 9 11 13 12 10 8 6 4 6 5 5 3 1 2 5 6 2 3 3 5 7 9 9 10 11 17 23
10 7 4 6 5 4 10 8 10 10 8 10 11 12 10 11 9 11 10 9 9 7 6 5 6 5 6 4 3 4 4 2 4 2 5 5 6 7 9 11 24 24 24
6 3 4 5 6 4 7 2 11 11 10 11 11 12 13 12 13 12 11 11 9 8 7 10 11 9 9 6 5 2 3 2 5 4 6 4 5 4 9 11 13 29 25
7 5 5 2 2 5 14 7 10 6 10 9 10 11 10 13 16 12 11 10 10 9 8 8 9 9 7 6 1 5 3 4 3 3 8 4 5 4 5 8 11 11 13
Wind_Direction
336 335 338 318 303 303 302 317 335 351 310 271 213 185 166 184 157 166 145 135 114 95 87 78 73 71 69 68 65 66 70 66 54 27 264 251 234 221 195 242 228 200 193
320 331 335 326 304 304 347 322 350 332 337 272 209 216 204 194 187 164 201 135 118 122 118 106 89 82 79 79 79 74 66 57 49 42 35 22 266 232 208 191 210 203 202
323 331 336 349 1 3 345 6 339 319 312 269 238 229 215 211 196 192 205 180 146 161 152 128 113 103 95 86 80 70 58 47 37 30 27 39 49 344 204 177 177 248 218
305 316 326 360 18 355 359 359 358 345 309 275 258 243 226 209 212 209 181 211 195 166 176 164 152 137 122 108 94 86 72 57 44 29 13 12 20 74 150 187 186 212 206
272 304 329 1 327 2 13 357 46 8 5 333 282 243 235 228 218 212 212 220 189 192 200 173 165 155 136 116 98 83 71 60 40 27 23 7 346 12 302 190 210 205 179
284 277 349 40 7 6 18 12 20 57 22 340 307 280 247 241 235 235 230 215 205 211 206 192 188 174 143 112 101 80 58 42 39 17 4 355 345 322 345 201 188 192 216
296 276 346 43 23 22 15 7 360 6 31 358 309 297 244 240 237 240 226 225 224 225 210 210 206 153 137 123 104 81 61 34 28 1 350 350 327 309 284 198 198 188 216
281 275 316 27 33 25 37 30 31 3 36 18 350 304 335 166 248 266 262 255 245 227 251 249 223 158 156 150 110 63 33 23 12 350 353 345 328 320 276 223 207 211 200
269 268 280 323 61 4 24 11 17 19 7 47 20 343 333 349 322 95 42 300 294 268 257 236 215 152 145 93 65 32 30 340 347 343 335 344 323 305 309 241 226 209 206
270 261 231 221 195 62 62 37 30 12 343 25 64 53 31 333 332 320 91 57 84 23 355 288 151 124 114 98 119 196 162 254 346 339 339 338 320 316 282 244 235 228 208
277 248 234 208 210 192 142 84 69 37 33 9 24 349 3 238 177 298 322 6 155 29 20 25 105 111 98 118 221 175 146 126 359 330 351 336 338 333 284 249 226 228 218
277 254 263 250 226 227 211 165 107 92 61 50 12 17 350 342 343 321 312 326 335 57 52 76 101 103 125 120 145 93 81 61 11 16 360 347 346 339 313 180 195 224 217
278 267 270 273 240 231 225 186 155 129 99 31 15 13 312 339 309 314 305 351 322 72 94 85 100 104 90 70 61 47 43 33 12 14 359 350 347 352 11 32 43 16 289
271 294 291 287 238 231 230 210 190 215 115 77 60 329 315 30 277 311 330 319 334 130 178 112 100 109 102 81 65 56 86 24 6 0 1 0 349 350 357 40 42 358 360
254 260 288 275 231 238 240 214 245 239 219 204 146 238 294 56 276 101 331 313 333 331 36 129 123 95 84 95 62 12 3 23 356 10 358 351 338 341 339 353 356 322 344
256 265 276 268 246 238 227 212 215 227 228 210 172 264 282 80 307 83 345 300 271 301 319 48 61 131 120 98 69 343 10 293 9 350 351 335 329 327 332 320 315 306 308
252 259 265 272 257 244 238 214 213 224 238 204 188 227 231 112 25 358 345 328 268 248 118 104 80 127 98 112 320 334 327 330 6 12 343 340 331 326 313 302 293 284 272
241 247 255 253 252 247 239 232 214 222 239 231 208 219 214 144 97 6 17 21 16 102 46 130 115 126 91 78 345 341 339 5 2 8 348 344 336 322 305 297 284 272 250
236 234 238 244 248 239 234 235 240 210 216 242 215 211 186 178 119 56 50 74 75 90 116 130 125 172 132 244 282 306 352 20 34 2 350 340 338 324 316 297 280 262 232
242 236 225 228 233 236 227 230 233 225 201 229 205 201 185 175 135 114 90 96 86 98 105 116 129 123 114 153 341 349 359 17 32 358 342 329 337 321 305 286 269 243 215
241 237 231 225 229 226 226 220 220 219 205 204 190 173 167 117 116 92 105 93 110 108 124 127 130 137 118 167 356 351 320 1 81 12 322 324 322 313 315 321 300 199 182
251 241 236 233 233 238 220 204 216 216 195 190 182 169 141 133 123 103 91 51 46 118 116 132 140 104 118 118 85 342 353 32 27 6 325 311 342 352 353 351 332 163 155
260 248 241 244 255 254 244 201 201 214 193 186 176 170 155 139 139 115 99 98 75 65 56 125 119 113 118 93 24 7 38 65 60 312 326 322 354 13 6 8 70 127 137
251 242 190 95 63 8 318 280 208 201 193 185 182 169 156 155 149 134 116 102 92 82 96 114 105 91 103 111 73 66 64 85 120 342 357 355 349 8 18 31 58 94 111
162 180 203 150 113 123 51 264 211 185 182 176 176 170 159 157 156 143 129 118 107 99 81 75 78 75 76 55 57 131 79 128 88 17 21 330 347 332 28 29 49 70 78
220 196 273 328 186 276 98 153 268 224 175 168 173 166 163 159 162 162 137 137 128 128 128 127 120 113 115 99 48 62 56 63 76 82 21 355 351 358 35 21 36 57 77